Location: Wien
(48.2082°N, 16.3738°E)
Time: 02:23:17
(UTC+02:00)

OTV 5 (USA 277) - Visible Passes

Search period start: 20 October 2019 00:00
Search period end: 29 October 2019 23:00
Orbit: 310 x 324 km, 54.5° (Epoch: 17 October)

Date Brightness Start Highest point End Pass type
(mag) Time Alt. Az. Time Alt. Az. Time Alt. Az.
20 Oct ? 05:34:07 25° SSE 05:34:07 25° SSE 05:35:36 10° SSE visible
21 Oct ? 05:48:52 12° S 05:48:52 12° S 05:49:17 10° S visible
28 Oct ? 18:07:12 10° SSE 18:07:46 12° SSE 18:07:46 12° SSE visible
29 Oct ? 18:20:36 10° SSW 18:22:16 25° S 18:22:16 25° S visible
